{"data":{"norad_id":67437,"epoch":"2026-05-25T02:01:06.619296Z","epoch_age_seconds":63711,"freshness":"FRESH","line1":"1 67437U 26007C   26145.08410439 -.00000085  00000+0  83250-4 0  9994","line2":"2 67437  50.0005 168.7202 0000900 274.9601  85.1168 13.29307790 17719","mean_motion":13.2930779,"eccentricity":9.0e-5,"inclination_deg":50.0005,"raan_deg":168.7202,"arg_perigee_deg":274.9601,"mean_anomaly_deg":85.1168,"bstar":8.325e-5,"rev_number":1771,"period_min":108.32705644492,"perigee_km":1148.6978405138,"apogee_km":1150.0527927308,"semimajor_km":7527.5123166223,"source":"CELESTRAK","updated_at":"2026-05-25T13:38:07.004382Z"}}